[[[{"header":{"parameterUnit":"kt","parameterCategory":2,"dx":1,"dy":1,"la1":30.253999710083008,"la2":30.299108505249023,"lo1":-89.0895004272461,"lo2":-89.04439544677734,"nx":28,"ny":28,"refTime":"2022-10-17T21:00:00:Z","depth":0,"parameterNumber":1,"parameterNumberName":"U-component_of_WINDS"},"data":[1.7959,1.7964,1.797,1.798,1.7986,1.7994,1.7998,1.8005,1.8011,1.8022,1.8028,1.8035,1.8043,1.8053,1.8061,1.8064,1.8066,1.8066,1.8069,1.8068,1.8068,1.8069,1.8067,1.8066,1.8066,1.8068,1.8068,1.8068,1.7961,1.7968,1.7974,1.7984,1.7989,1.7994,1.8003,1.8007,1.8013,1.8021,1.8028,1.8037,1.8045,1.8054,1.8062,1.8066,1.8068,1.8068,1.8067,1.8069,1.8069,1.8067,1.8066,1.8066,1.8066,1.8066,1.8066,1.8066,1.7968,1.7971,1.7979,1.7986,1.7992,1.7999,1.8003,1.8009,1.8016,1.8024,1.8029,1.8036,1.8045,1.8057,1.8062,1.8068,1.8069,1.807,1.8071,1.8071,1.807,1.8068,1.807,1.807,1.807,1.807,1.807,0,1.7974,1.7978,1.7983,1.7991,1.7996,1.8002,1.8009,1.8011,1.8021,1.8025,1.8032,1.8037,1.8047,1.8054,1.8062,1.8067,1.8071,1.8072,1.8073,1.807,1.8068,1.807,1.807,1.8072,1.8072,1.8072,1.8072,1.8072,1.798,1.7983,1.7993,1.7997,1.8001,1.8006,1.801,1.8018,1.8022,1.8031,1.8033,1.8041,1.8046,1.8057,1.8064,1.8071,1.8072,1.8073,1.8073,1.8072,1.8073,1.8072,1.8073,1.8072,1.8072,1.8072,1.8072,0,1.7984,1.7991,1.7996,1.8006,1.8008,1.8011,1.8019,1.8022,1.8028,1.8033,1.8034,1.8043,1.8049,1.8056,1.8064,1.8068,1.8073,1.8075,1.8071,1.8071,1.8073,1.8072,1.8074,1.8075,1.8077,1.8077,1.8077,0,1.7992,1.7995,1.8005,1.8008,1.8011,1.8018,1.8022,1.8026,1.8033,1.8037,1.8042,1.8046,1.8053,1.8058,1.8063,1.8069,1.807,1.8073,1.8074,1.8072,1.8071,1.8073,1.8073,1.8076,1.8076,1.8076,1.8076,0,1.7997,1.8004,1.8008,1.8011,1.8021,1.8022,1.8026,1.8033,1.8036,1.8042,1.8044,1.805,1.8053,1.8058,1.8064,1.8064,1.807,1.8071,1.8073,1.8073,1.8073,1.8072,1.8074,1.8076,1.8076,1.8076,1.8076,0,1.8004,1.8009,1.8013,1.8021,1.8023,1.8025,1.8031,1.8034,1.8041,1.8043,1.8048,1.8051,1.8056,1.8057,1.8064,1.8062,1.8065,1.8068,1.8068,1.8068,1.8069,1.8069,1.8069,1.807,1.807,1.807,1.807,0,1.8008,1.8013,1.8018,1.8022,1.8025,1.8031,1.8033,1.8038,1.8042,1.8046,1.805,1.8053,1.8055,1.8057,1.806,1.8064,1.8066,1.8064,1.807,1.807,1.8068,1.8069,1.8067,1.8069,1.807,1.807,1.807,0,1.801,1.8021,1.8021,1.8024,1.803,1.8032,1.8035,1.804,1.8042,1.8046,1.8049,1.8054,1.8056,1.8058,1.8061,1.8063,1.8065,1.8064,1.8065,1.8065,1.8069,1.8068,1.8068,1.8067,1.8067,1.8067,1.8069,0,1.8021,1.8023,1.8023,1.8029,1.8031,1.8033,1.8038,1.804,1.8043,1.8046,1.805,1.8054,1.8058,1.8059,1.8061,1.8064,1.8064,1.8065,1.8065,1.8066,1.8067,1.8067,1.8064,1.8064,1.8064,1.8064,0,0,1.8022,1.8025,1.803,1.8032,1.8034,1.8039,1.804,1.8043,1.8047,1.8049,1.8049,1.8056,1.8058,1.8062,1.8062,1.8063,1.8064,1.8063,1.8066,1.8066,1.8066,1.8067,1.8067,1.8064,1.8064,1.8064,1.8064,0,1.8027,1.8029,1.803,1.8033,1.8037,1.804,1.804,1.8045,1.8046,1.8049,1.8052,1.8055,1.8058,1.8061,1.8063,1.8064,1.8065,1.8064,1.8063,1.8066,1.8066,1.8066,1.8067,1.8067,1.8064,1.8064,1.8064,0,1.803,1.8034,1.8034,1.8038,1.8041,1.8043,1.8045,1.8047,1.8048,1.8051,1.8054,1.8056,1.8059,1.8061,1.8062,1.8062,1.8065,1.8064,1.8064,1.8064,1.8067,1.8067,1.8067,1.8065,1.8065,1.8065,0,0,1.8033,1.8035,1.804,1.8039,1.8041,1.8045,1.8046,1.8048,1.805,1.8051,1.8054,1.8056,1.8059,1.806,1.8062,1.8063,1.8065,1.8064,1.8064,1.8064,1.8064,1.8067,1.8067,1.8065,1.8065,1.8065,0,0,1.8034,1.804,1.8042,1.8042,1.8044,1.8048,1.8048,1.805,1.8052,1.8052,1.8055,1.8056,1.8058,1.8059,1.8059,1.8062,1.8063,1.8063,1.8061,1.8061,1.8061,1.806,1.806,0,0,0,0,0,1.804,1.8039,1.8041,1.8042,1.8045,1.8048,1.8048,1.8051,1.8052,1.8052,1.8054,1.8055,1.806,1.8059,1.806,1.806,1.8065,1.8065,1.8065,1.8063,1.8062,1.8062,0,0,0,0,0,0,1.8041,1.8041,1.8041,1.8045,1.8046,1.8048,1.805,1.805,1.8052,1.8052,1.8055,1.8055,1.8057,1.8059,1.806,1.806,1.806,1.8065,1.8065,1.8065,1.8062,1.8062,1.8062,0,0,0,0,0,1.8041,1.8041,1.8047,1.8045,1.8046,1.8049,1.805,1.805,1.8051,1.8054,1.8055,1.8053,1.8057,1.8057,1.8059,1.806,1.806,1.806,1.8065,1.8065,1.8065,1.8062,0,0,0,0,0,0,1.8041,1.8042,1.8047,1.8047,1.8045,1.8049,1.8049,1.805,1.8054,1.8054,1.8053,1.8053,1.8057,1.8057,1.8058,1.806,1.8059,1.806,1.806,1.8065,1.8065,1.8065,0,0,0,0,0,0,1.8042,1.8042,1.8047,1.8047,1.8047,1.8049,1.8049,1.8051,1.8054,1.8052,1.8052,1.8053,1.8056,1.8057,1.8058,1.806,1.8059,1.8059,1.8059,1.806,1.8065,1.8065,0,0,0,0,0,0,1.8042,1.8042,1.8047,1.8047,1.8048,1.8052,1.805,1.8053,1.8054,1.8052,1.8054,1.8054,1.8056,1.8056,1.8057,1.8059,1.806,1.8059,1.8059,1.8059,1.8059,0,0,0,0,0,0,0,1.8042,1.8038,1.8045,1.8047,1.8048,1.805,1.8051,1.8051,1.8054,1.8054,1.8054,1.8054,1.8058,1.8059,1.8059,1.8059,0,0,1.8059,1.8059,0,0,0,0,0,0,0,0,1.8038,1.8038,1.8045,1.8045,1.8045,1.805,1.8051,1.8051,1.8054,1.8054,1.8054,1.8054,1.8058,1.8059,1.8059,0,0,0,0,0,0,0,0,0,0,0,0,0,0,0,1.8045,1.8045,0,1.805,1.8051,1.8051,1.8054,1.8054,1.8054,1.8054,1.8059,1.8059,1.8059,0,0,0,0,0,0,0,0,0,0,0,0,0,0,0,0,0,0,0,0,0,0,0,0,0,0,0,0,0,0,0,0,0,0,0,0,0,0,0,0,0,0,0,0,0,0,0,0,0,0,0,0,0,0,0,0,0,0,0,0,0,0,0,0,0,0,0,0,0]}],[{"header":{"parameterUnit":"kt","parameterCategory":2,"dx":1,"dy":1,"la1":30.253999710083008,"la2":30.299108505249023,"lo1":-89.0895004272461,"lo2":-89.04439544677734,"nx":28,"ny":28,"refTime":"2022-10-17T21:00:00:Z","depth":0,"parameterNumber":2,"parameterNumberName":"V-component_of_WINDS"},"data":[-12.414,-12.4266,-12.4289,-12.4441,-12.4486,-12.4593,-12.4638,-12.4697,-12.4749,-12.4876,-12.4952,-12.4983,-12.5039,-12.5132,-12.5212,-12.5223,-12.5256,-12.5287,-12.5294,-12.5141,-12.5121,-12.5102,-12.5076,-12.5294,-12.5294,-12.5451,-12.5452,-12.5453,-12.4032,-12.4079,-12.4166,-12.4265,-12.4339,-12.4324,-12.4399,-12.4461,-12.4555,-12.4618,-12.4694,-12.4805,-12.4894,-12.4939,-12.5027,-12.5083,-12.5079,-12.5105,-12.5101,-12.511,-12.4948,-12.4919,-12.5108,-12.5108,-12.5108,-12.5108,-12.5108,-12.5108,-12.3841,-12.3915,-12.3987,-12.4081,-12.4135,-12.42,-12.4273,-12.4311,-12.4392,-12.4489,-12.4494,-12.4599,-12.4663,-12.4776,-12.4817,-12.4897,-12.487,-12.4903,-12.4912,-12.4921,-12.4929,-12.4705,-12.4912,-12.4911,-12.4911,-12.491,-12.491,0,-12.3707,-12.3721,-12.3804,-12.3895,-12.3964,-12.4034,-12.4101,-12.4146,-12.4175,-12.4241,-12.4337,-12.4395,-12.4508,-12.4598,-12.4682,-12.4717,-12.4702,-12.4702,-12.4725,-12.4726,-12.4718,-12.4725,-12.4461,-12.4695,-12.4693,-12.4692,-12.4691,-12.469,-12.3517,-12.3599,-12.3683,-12.3739,-12.3781,-12.3869,-12.3925,-12.3944,-12.4002,-12.4085,-12.4146,-12.4237,-12.4311,-12.4457,-12.4493,-12.4575,-12.4569,-12.4657,-12.458,-12.4579,-12.4572,-12.4568,-12.4577,-12.4671,-12.4674,-12.4676,-12.4677,0,-12.3408,-12.3441,-12.3574,-12.3647,-12.3668,-12.3752,-12.3812,-12.3884,-12.391,-12.4011,-12.4036,-12.4075,-12.4166,-12.4189,-12.4295,-12.4303,-12.444,-12.443,-12.442,-12.4419,-12.4502,-12.4494,-12.4762,-12.4798,-12.4571,-12.4573,-12.4575,0,-12.3259,-12.3364,-12.3407,-12.3482,-12.36,-12.3616,-12.3732,-12.3765,-12.3821,-12.3901,-12.3889,-12.3964,-12.3979,-12.4057,-12.4069,-12.4184,-12.4202,-12.4216,-12.4218,-12.4218,-12.4216,-12.4246,-12.4236,-12.4217,-12.4215,-12.4214,-12.4213,0,-12.3086,-12.323,-12.3353,-12.339,-12.3476,-12.3532,-12.3569,-12.363,-12.3683,-12.3754,-12.3789,-12.3869,-12.3913,-12.3975,-12.399,-12.3938,-12.413,-12.4061,-12.4144,-12.4144,-12.4184,-12.4182,-12.4414,-12.4211,-12.4211,-12.421,-12.421,0,-12.2969,-12.3046,-12.3216,-12.3288,-12.3325,-12.3403,-12.3486,-12.3558,-12.3622,-12.3636,-12.3691,-12.3685,-12.3786,-12.3716,-12.3856,-12.3784,-12.3827,-12.3849,-12.3855,-12.3865,-12.3787,-12.3916,-12.4134,-12.4159,-12.3875,-12.3873,-12.387,0,-12.2764,-12.2944,-12.296,-12.312,-12.3206,-12.319,-12.3277,-12.3334,-12.3359,-12.3434,-12.346,-12.3543,-12.3496,-12.3524,-12.359,-12.362,-12.3713,-12.3607,-12.3712,-12.3716,-12.3699,-12.39,-12.3927,-12.4084,-12.3835,-12.3838,-12.3841,0,-12.2608,-12.2712,-12.2739,-12.2783,-12.2862,-12.2932,-12.3031,-12.3119,-12.3168,-12.3231,-12.3314,-12.3429,-12.3399,-12.3446,-12.3447,-12.3515,-12.365,-12.3471,-12.3473,-12.3504,-12.3817,-12.3844,-12.3871,-12.3636,-12.364,-12.3644,-12.3813,0,-12.2429,-12.2521,-12.2596,-12.269,-12.2748,-12.2847,-12.2873,-12.2929,-12.2928,-12.2951,-12.3072,-12.3119,-12.3204,-12.3237,-12.3233,-12.3381,-12.3359,-12.3324,-12.3257,-12.3388,-12.3444,-12.3467,-12.3172,-12.317,-12.3168,-12.3167,0,0,-12.2225,-12.2357,-12.2369,-12.2466,-12.2516,-12.2495,-12.26,-12.2644,-12.2733,-12.2767,-12.2731,-12.29,-12.2939,-12.3082,-12.3125,-12.3157,-12.3186,-12.3138,-12.3325,-12.3343,-12.3359,-12.3419,-12.3442,-12.3164,-12.3164,-12.3163,-12.3163,0,-12.2165,-12.2211,-12.2315,-12.2363,-12.2434,-12.2454,-12.2479,-12.2544,-12.2563,-12.268,-12.2658,-12.2732,-12.2864,-12.2911,-12.2951,-12.3122,-12.3099,-12.3145,-12.3232,-12.3309,-12.3328,-12.3346,-12.3408,-12.3431,-12.3159,-12.3159,-12.3159,0,-12.2017,-12.2067,-12.2119,-12.223,-12.2275,-12.2361,-12.2299,-12.2392,-12.2455,-12.2422,-12.2538,-12.2567,-12.2628,-12.2759,-12.2818,-12.2785,-12.302,-12.2948,-12.2958,-12.2965,-12.304,-12.3064,-12.3085,-12.2808,-12.2807,-12.2806,0,0,-12.1961,-12.2046,-12.2102,-12.2219,-12.2249,-12.2279,-12.2326,-12.2328,-12.2386,-12.2409,-12.2445,-12.25,-12.2577,-12.2628,-12.27,-12.284,-12.2854,-12.2904,-12.292,-12.2934,-12.2948,-12.3026,-12.305,-12.2801,-12.2801,-12.28,0,0,-12.1933,-12.2005,-12.1993,-12.2131,-12.2189,-12.2249,-12.2318,-12.2304,-12.2372,-12.2363,-12.2366,-12.2381,-12.2503,-12.2531,-12.2464,-12.2677,-12.261,-12.2626,-12.2654,-12.2675,-12.2692,-12.2682,-12.2403,0,0,0,0,0,-12.1884,-12.1996,-12.1985,-12.2012,-12.2148,-12.2256,-12.2273,-12.2281,-12.2236,-12.2291,-12.2319,-12.2291,-12.2496,-12.2437,-12.2461,-12.2536,-12.2738,-12.2749,-12.276,-12.2829,-12.2851,-12.2869,0,0,0,0,0,0,-12.1894,-12.1927,-12.1982,-12.2047,-12.2078,-12.2252,-12.2177,-12.2182,-12.223,-12.2224,-12.2286,-12.2293,-12.2299,-12.2425,-12.2447,-12.2517,-12.2395,-12.2742,-12.2752,-12.276,-12.2836,-12.2854,-12.287,0,0,0,0,0,-12.1903,-12.1929,-12.2146,-12.2046,-12.2072,-12.2111,-12.2172,-12.2176,-12.2213,-12.2256,-12.2261,-12.2215,-12.2301,-12.2319,-12.2438,-12.2507,-12.238,-12.2388,-12.2749,-12.2756,-12.2763,-12.2845,0,0,0,0,0,0,-12.1909,-12.1932,-12.2152,-12.216,-12.2004,-12.2101,-12.2117,-12.2171,-12.2242,-12.2249,-12.2184,-12.2178,-12.2303,-12.2317,-12.2332,-12.2503,-12.2368,-12.2376,-12.2381,-12.2754,-12.276,-12.2765,0,0,0,0,0,0,-12.1918,-12.1939,-12.2156,-12.2102,-12.2105,-12.2092,-12.2106,-12.2206,-12.2243,-12.2166,-12.2163,-12.218,-12.228,-12.2317,-12.2328,-12.2483,-12.2358,-12.2366,-12.2372,-12.2375,-12.2759,-12.2764,0,0,0,0,0,0,-12.1927,-12.1945,-12.21,-12.2102,-12.2104,-12.2197,-12.218,-12.2318,-12.2201,-12.2163,-12.219,-12.2185,-12.228,-12.2291,-12.2325,-12.2476,-12.2481,-12.2358,-12.2364,-12.2368,-12.237,0,0,0,0,0,0,0,-12.1934,-12.181,-12.2103,-12.2102,-12.2103,-12.2237,-12.2239,-12.2242,-12.22,-12.2196,-12.2191,-12.2187,-12.2312,-12.2321,-12.233,-12.247,0,0,-12.2358,-12.2361,0,0,0,0,0,0,0,0,-12.1802,-12.1808,-12.2103,-12.2105,-12.2107,-12.2237,-12.2239,-12.2241,-12.2199,-12.2196,-12.2192,-12.2189,-12.2315,-12.2322,-12.2329,0,0,0,0,0,0,0,0,0,0,0,0,0,0,0,-12.2103,-12.2105,0,-12.2238,-12.2239,-12.2241,-12.2199,-12.2196,-12.2193,-12.219,-12.2317,-12.2323,-12.2329,0,0,0,0,0,0,0,0,0,0,0,0,0,0,0,0,0,0,0,0,0,0,0,0,0,0,0,0,0,0,0,0,0,0,0,0,0,0,0,0,0,0,0,0,0,0,0,0,0,0,0,0,0,0,0,0,0,0,0,0,0,0,0,0,0,0,0,0,0]}]]]